User: anonymous   Login
Location: Unspecified
(0.0000°N, 0.0000°E)
Time: 06:37:47
(UTC+00:00)
Language:

BIRD MM - Orbit

View from above orbital plane
View from above orbital plane
View from above satellite
View from above satellite

Ground track
Ground track

The orbit data is extracted from the following two-line orbital elements,

1 42822U 98067MW  19082.83330174  .00097790  14685-4  31215-3 0  9992
2 42822  51.6302   0.9430 0004495 161.8462 198.2705 15.91033417 97937
Epoch (UTC): 23 March 2019 19:59:57
Eccentricity: 0.0004495
inclination: 51.6302°
perigee height: 296 km
apogee height: 302 km
right ascension of ascending node: 0.9430°
argument of perigee: 161.8462°
revolutions per day: 15.91033417
mean anomaly at epoch: 198.2705°
orbit number at epoch: 9793

The dashed part of the orbit path shows where the satellite is in the earth's shadow,  

DLR